Visibility
15.0 15.0 15.0 15.0 15.0 15.0 15.0 15.0 15.0 15.0 15.0 15.0 15.0 15.0 15.0 15.0 15.0 15.0 15.0 15.0 15.0 15.0 15.0 15.0 15.0 15.0 15.0 15.0 15.0 15.0 15.0 15.0 15.0 13.9 15.0 15.0 12.8 4.5
15.0 15.0 15.0 15.0 15.0 15.0 15.0 15.0 15.0 15.0 15.0 15.0 15.0 15.0 15.0 15.0 15.0 15.0 15.0 15.0 15.0 15.0 15.0 15.0 15.0 15.0 15.0 15.0 15.0 15.0 15.0 15.0 15.0 6.4 15.0 15.0 15.0 3.8
15.0 15.0 15.0 15.0 15.0 15.0 15.0 15.0 15.0 15.0 15.0 15.0 15.0 15.0 15.0 15.0 15.0 15.0 15.0 15.0 15.0 15.0 15.0 15.0 15.0 15.0 15.0 15.0 15.0 15.0 15.0 15.0 15.0 15.0 15.0 15.0 15.0 15.0
15.0 15.0 15.0 15.0 15.0 15.0 15.0 15.0 15.0 15.0 15.0 15.0 15.0 15.0 15.0 15.0 15.0 15.0 15.0 15.0 15.0 15.0 15.0 15.0 15.0 15.0 15.0 15.0 15.0 15.0 15.0 15.0 15.0 15.0 15.0 15.0 15.0 15.0
15.0 15.0 15.0 15.0 15.0 15.0 15.0 15.0 15.0 15.0 15.0 15.0 15.0 15.0 15.0 15.0 15.0 15.0 15.0 15.0 15.0 15.0 15.0 15.0 15.0 15.0 15.0 15.0 15.0 15.0 15.0 15.0 15.0 15.0 15.0 15.0 15.0 15.0
15.0 15.0 15.0 15.0 15.0 15.0 15.0 15.0 15.0 15.0 15.0 15.0 15.0 15.0 15.0 15.0 15.0 15.0 15.0 15.0 15.0 15.0 15.0 15.0 15.0 15.0 15.0 15.0 15.0 15.0 15.0 15.0 15.0 15.0 15.0 15.0 15.0 15.0
15.0 15.0 15.0 15.0 15.0 15.0 15.0 15.0 15.0 15.0 15.0 15.0 15.0 15.0 15.0 15.0 15.0 15.0 15.0 15.0 15.0 15.0 15.0 15.0 15.0 15.0 15.0 15.0 15.0 15.0 15.0 15.0 15.0 15.0 15.0 15.0 15.0 15.0
15.0 15.0 15.0 15.0 15.0 15.0 15.0 15.0 15.0 15.0 15.0 15.0 15.0 15.0 15.0 15.0 15.0 15.0 15.0 15.0 15.0 15.0 15.0 15.0 15.0 15.0 15.0 15.0 15.0 15.0 15.0 15.0 15.0 15.0 15.0 15.0 15.0 15.0
15.0 15.0 15.0 15.0 15.0 15.0 15.0 15.0 15.0 15.0 15.0 15.0 15.0 15.0 15.0 15.0 15.0 15.0 15.0 15.0 15.0 15.0 15.0 15.0 15.0 15.0 15.0 15.0 15.0 15.0 15.0 15.0 15.0 15.0 15.0 15.0 15.0 15.0
15.0 15.0 15.0 15.0 15.0 15.0 15.0 15.0 15.0 15.0 15.0 15.0 15.0 15.0 15.0 15.0 15.0 15.0 15.0 15.0 15.0 15.0 15.0 15.0 15.0 15.0 15.0 15.0 15.0 15.0 15.0 15.0 15.0 15.0 15.0 15.0 15.0 15.0
15.0 15.0 15.0 15.0 15.0 15.0 15.0 15.0 15.0 15.0 15.0 15.0 15.0 15.0 15.0 15.0 15.0 15.0 15.0 15.0 15.0 15.0 15.0 15.0 15.0 15.0 15.0 15.0 15.0 15.0 15.0 15.0 15.0 15.0 15.0 15.0 15.0 15.0
15.0 15.0 15.0 15.0 15.0 15.0 15.0 15.0 15.0 15.0 15.0 15.0 15.0 15.0 15.0 15.0 15.0 15.0 15.0 5.4 5.2 13.9 15.0 0.4 15.0 9.0 13.8 15.0 15.0 15.0 15.0 15.0 15.0 15.0 15.0 15.0 15.0 15.0
15.0 15.0 15.0 15.0 15.0 15.0 15.0 15.0 15.0 15.0 15.0 15.0 15.0 15.0 15.0 15.0 15.0 15.0 15.0 15.0 3.6 3.0 15.0 0.2 3.7 3.0 6.5 15.0 15.0 15.0 15.0 15.0 15.0 15.0 15.0 15.0 15.0 15.0
15.0 15.0 15.0 15.0 15.0 15.0 15.0 15.0 15.0 15.0 15.0 15.0 14.6 15.0 15.0 15.0 15.0 15.0 15.0 15.0 15.0 10.6 15.0 15.0 2.6 7.2 1.1 4.6 15.0 15.0 15.0 15.0 15.0 15.0 15.0 15.0 15.0 15.0
15.0 15.0 15.0 15.0 15.0 15.0 15.0 15.0 15.0 15.0 8.5 15.0 10.9 7.6 15.0 15.0 15.0 15.0 15.0 15.0 15.0 15.0 15.0 15.0 14.2 15.0 14.3 1.2 2.0 14.2 14.9 15.0 15.0 15.0 15.0 15.0 15.0 15.0
15.0 15.0 15.0 15.0 15.0 15.0 14.1 14.2 15.0 15.0 15.0 9.0 4.2 4.4 14.4 15.0 13.6 15.0 5.2 15.0 9.4 15.0 15.0 15.0 15.0 14.7 2.4 15.0 12.9 10.5 15.0 5.4 15.0 15.0 15.0 15.0 15.0 15.0
15.0 14.3 6.1 5.6 8.4 7.0 5.2 6.5 5.9 9.1 15.0 4.7 4.4 4.7 4.9 4.5 4.8 10.9 9.5 4.8 4.0 7.2 14.4 15.0 15.0 15.0 15.0 15.0 4.9 15.0 15.0 15.0 15.0 15.0 10.2 9.7 15.0 15.0
15.0 12.5 4.1 4.1 4.7 14.7 4.9 4.6 4.4 11.4 5.3 5.0 4.6 5.0 4.1 3.5 4.8 15.0 13.1 4.1 3.0 4.1 6.2 15.0 13.3 14.5 15.0 15.0 15.0 15.0 15.0 15.0 15.0 15.0 9.0 0.8 11.8 15.0
15.0 15.0 15.0 15.0 10.7 15.0 15.0 15.0 15.0 5.2 12.7 5.1 4.6 4.4 4.8 6.4 14.7 15.0 15.0 14.9 8.2 4.4 13.9 5.6 4.4 0.7 1.3 5.9 15.0 15.0 15.0 15.0 15.0 15.0 15.0 3.5 1.1 15.0
15.0 15.0 15.0 15.0 15.0 15.0 15.0 15.0 5.3 4.5 8.5 4.8 4.2 4.2 4.3 11.8 15.0 13.1 12.5 4.3 4.2 7.7 12.3 15.0 10.6 1.1 0.1 0.2 0.2 14.3 15.0 13.1 2.0 1.8 14.8 15.0 15.0 15.0
15.0 15.0 15.0 15.0 15.0 15.0 15.0 15.0 15.0 6.8 4.6 4.1 4.1 6.4 6.1 5.0 5.6 4.8 6.2 4.6 4.2 7.7 3.8 12.7 15.0 15.0 15.0 14.5 3.7 11.8 15.0 15.0 15.0 11.9 15.0 4.2 7.0 9.6
15.0 15.0 15.0 15.0 15.0 15.0 15.0 15.0 4.6 4.1 5.9 7.4 4.1 4.4 4.1 7.9 4.1 3.9 4.0 2.2 3.6 2.3 3.4 15.0 15.0 15.0 12.8 2.4 1.0 2.6 14.5 15.0 15.0 15.0 15.0 13.8 0.3 0.3
15.0 15.0 15.0 15.0 15.0 15.0 15.0 15.0 15.0 4.1 4.1 14.6 4.1 4.1 4.0 4.1 4.1 4.1 4.1 4.0 2.3 3.5 5.5 3.0 14.9 14.9 5.0 4.5 1.9 3.3 6.7 10.9 14.8 15.0 15.0 15.0 15.0 1.6